Regional Weather Roundup
Issued by NWS

Home | Current Version | Previous Version | Graphics & Text | Print | Product List | Glossary On
Versions: 1 2 3 4 5 6 7 8 9 10 11 12 13 14 15 16 17 18 19 20 21 22 23 24 25 26 27 28 29 30 31 32 33 34 35 36 37 38 39 40 41 42 43 44 45 46 47 48 49
000
ASUS45 KBOU 220307
RWRCO

WEATHER ROUNDUP FOR COLORADO
NATIONAL WEATHER SERVICE DENVER/BOULDER CO
800 PM MST SUN DEC 21 2014

NOTE: "FAIR" INDICATES FEW OR NO CLOUDS BELOW 12000 FEET WITH NO
SIGNIFICANT WEATHER AND/OR OBSTRUCTIONS TO VISIBILITY.

COZ001>005-013-030-031-220400-
...NORTHWEST COLORADO...

CITY           SKY/WX    TMP DP  RH WIND       PRES   REMARKS
CRAIG          CLOUDY    39  31  72 W23G30    29.78R
HAYDEN         CLOUDY    36  28  75 W21       29.75R
MEEKER         LGT SNOW  33  31  92 CALM      29.83R VSB 1
MOUNT WERNER   NOT AVBL
STEAMBOAT SPGS CLOUDY    36  30  80 W25G36    29.72R
WALDEN         CLOUDY    32  28  86 NW22G33   29.68R WCI  19
$$

COZ006>008-011-220400-
...WEST CENTRAL VALLEYS...

CITY           SKY/WX    TMP DP  RH WIND       PRES   REMARKS
GRAND JUNCTION CLOUDY    34  33  96 CALM      29.91F
MONTROSE       CLOUDY    32  30  92 VRB3      29.91F
EAGLE          LGT SNOW  34  30  86 W15       29.80  FOG     WCI  24
RIFLE          LGT RAIN  35  31  85 W16       29.82F WCI  25
DELTA          CLOUDY    34  33  93 NE5       29.90F WCI  30
NUCLA          MOCLDY    36  32  87 S5        29.98F
$$

COZ017>023-064>068-220400-
...SOUTHWEST COLORADO...

CITY           SKY/WX    TMP DP  RH WIND       PRES   REMARKS
DURANGO        CLOUDY    37  29  72 W20       29.91F
CORTEZ         MOCLDY    35  30  82 NE6       29.97F WCI  30
PAGOSA SPRINGS LGT SNOW  30  30  99 CALM      29.93F
TELLURIDE      CLOUDY    32  31  96 W12G20    29.97F WCI  23
WOLF CREEK PAS LGT SNOW  21  21 100 MISG      29.91F VSB 3/4
$$

COZ009-010-012-014-032>034-037-058>063-220400-
...CENTRAL COLORADO...

CITY           SKY/WX    TMP DP  RH WIND       PRES   REMARKS
ASPEN          LGT SNOW  27  26  96 SE6       29.77F FOG     WCI  20
BUENA VISTA    CLOUDY    35  27  70 S5        29.71R WCI  31
COPPER MTN     CLOUDY    25  19  80 W40       29.71R WCI   6
BERTHOUD PASS  HVY SNOW  18  12  79 MISG      29.56R VSB<1/4
COTTONWOOD PAS LGT SNOW  32  27  80 NW14G35   29.70S WCI  22
GUNNISON       CLOUDY    34  28  80 SW14      29.83F WCI  24
KREMMLING      CLOUDY    37  27  65 NW16G32   29.71R
LEADVILLE      LGT SNOW  24  22  91 NW20G29   29.71F VSB 3/4 WCI  10
MONARCH PASS   CLOUDY    21  19  93 MISG      29.85R
SALIDA         CLOUDY    42  26  54 W17G23    29.78S
SUNLIGHT       LGT SNOW N/A N/A N/A SW5       29.80F VSB 3/4
WILKERSON PASS HVY SNOW  23  21  93 W13G24    29.73R VSB 1/4 WCI  11
$$

COZ069>075-220400-
...SAN LUIS VALLEY/SANGRE DE CRISTO MOUNTAINS...

CITY           SKY/WX    TMP DP  RH WIND       PRES   REMARKS
ALAMOSA        CLOUDY    32  24  72 SE3       29.79S
LA VETA PASS   LGT SNOW  27  23  86 S15G26    29.74F WCI  15
SAGUACHE       FLURRIES  32  30  93 SW10G18   29.78F WCI  24
$$

COZ035-036-038>040-220400-
...NORTHERN COLORADO FRONT RANGE...

CITY           SKY/WX    TMP DP  RH WIND       PRES   REMARKS
DENVER INTL AP CLOUDY    44  27  51 N7        29.58R
DMNS CITY PARK   N/A     46  31  56 NW9       29.60S
AURORA         MOCLDY    45  30  56 NW18G35   29.61R
FRONT RANGE AP CLOUDY    43  28  56 CALM      29.60R
ERIE MUNI ARPT RAIN      45  34  66 N22G37    29.62R
BOULDER MUN AP LGT RAIN  43  34  70 N26       29.60R
CENTENNIAL     LGT RAIN  42  31  64 N9        29.61R
BROOMFIELD     MOCLDY    45  32  61 NW9G22    29.60R
FORT COLLINS   MOCLDY    43  28  56 NE3       29.60R
LONGMONT       LGT RAIN  44  37  75 NW18G25   29.63R
$$

COZ041-046-047-076>085-087-088-220400-
...PIKES PEAK/PALMER DIVIDE AND SOUTHERN FOOTHILLS...

CITY           SKY/WX    TMP DP  RH WIND       PRES   REMARKS
COLO. SPRINGS  MOCLDY    45  26  47 NW14G23   29.62R
A. F. ACADEMY  PTCLDY    42  26  53 NW8       29.62R
ELLICOTT       NOT AVBL
FALCON         CLOUDY    40  25  56 NW15G21   29.64S
FORT CARSON    PTCLDY    42  25  51 W9        29.60R
LIMON          LGT RAIN  37  34  89 N5        29.63R
MONUMENT HILL  FLURRIES  34  30  86 NW9G24    29.63R WCI  26
TRINIDAD       PTCLDY    42  26  53 NW9       29.62S
$$

COZ042>045-048>051-090-091-220400-
...NORTHEAST COLORADO...

CITY           SKY/WX    TMP DP  RH WIND       PRES   REMARKS
GREELEY ARPT   MOCLDY    43  30  61 N17       29.57S
AKRON          CLOUDY    39  34  82 N13       29.56R
BURLINGTON     CLOUDY    43  34  70 W21       29.57S
WRAY           CLOUDY    37  33  87 W8        29.53R
STERLING       CLOUDY    43  36  75 W3        29.53S
HOLYOKE        MOCLDY    37  32  81 W7        29.52S
FORT MORGAN    LGT RAIN  38  34  85 NW22      29.61R
$$

COZ086-089-092>099-220400-
...SOUTHEAST COLORADO...

CITY           SKY/WX    TMP DP  RH WIND       PRES   REMARKS
PUEBLO         CLEAR     49  27  42 NW16G28   29.59S
LA JUNTA       CLOUDY    41  29  62 N3        29.58S
LAMAR          CLOUDY    38  31  76 SW8       29.56R
SPRINGFIELD      N/A     45  27  49 NW12      29.57S
$$


USA.gov is the U.S. government's official web portal to all federal, state and local government web resources and services.